sat.trackr.live / text

‹ back to catalog

STARLINK-30788

NORAD 58159 · 2023-166K

PAYLOAD ACTIVE UNKNOWN

§ Identity

Operator
Country
US
Launch date
2023-10-29
Launch site
AFWTR
Launch vehicle
Mass (kg)
RCS (m²)

Purposes: comms

External: N2YO · Heavens-Above · Gunter

§ Orbital elements

Epoch: 2026-09-19T17:07:54.741792Z

Period
94.01 min
Inclination
53.1603°
Eccentricity
0.0001154
Mean motion
15.31710207 rev/d
Perigee alt
469.9 km
Apogee alt
471.5 km
Semi-major
6,848.8 km
B*
-1.9954e-5
RAAN
37.0881°
Arg perigee
54.4017°
Mean anomaly
305.7092°
Rev number
16,275

§ Raw data

STARLINK-307881 58159U 23166K   26262.71382803 -.00000984  00000+0 -19954-4 0  99902 58159  53.1603  37.0881 0001154  54.4017 305.7092 15.31710207162751

JSON: /api/v1/satellites/58159 · /tle

For live sub-satellite position, see the globe view (requires WebGL).

§ Visibility from observer

Set your observer location to see the next 7 days of passes ≥ 10°. The values pass through the URL so the page stays shareable.

No JS? Fill the form by hand. The geolocation button needs JavaScript.